{"data":{"norad_id":61515,"epoch":"2026-05-24T23:29:19.541760Z","epoch_age_seconds":77202,"freshness":"FRESH","line1":"1 61515U 24183G   26144.97869840 -.00000029  00000+0  10815-4 0  9994","line2":"2 61515  53.1603 148.0295 0001116  92.3007 267.8122 15.31699180 91334","mean_motion":15.3169918,"eccentricity":0.0001116,"inclination_deg":53.1603,"raan_deg":148.0295,"arg_perigee_deg":92.3007,"mean_anomaly_deg":267.8122,"bstar":1.0815e-5,"rev_number":9133,"period_min":94.013238291346,"perigee_km":469.97810465861,"apogee_km":471.50677454953,"semimajor_km":6848.8794396041,"source":"CELESTRAK","updated_at":"2026-05-25T13:38:19.369567Z"}}